Home   Weather   Jeddah   Past weeks

Flag for Saudi Arabia Past Weather in Jeddah, Saudi Arabia — Yesterday and Last 2 Weeks

Now
93 °F

Sunny.


Feels Like: 107 °F
Forecast: 89 / 98 °F
Wind: 16 mph from Northwest

Location: Jeddah King Abdul Aziz International Airport

Current Time: Jul 22, 2017 at 9:55:11 am

Latest Report: Jul 22, 2017 at 9:00 am


Visibility: 10 mi

Pressure: 29.62 "Hg

Humidity: 59%

Dew Point: 77 °F

Location of JeddahLocation

Past Weather in Jeddah — Graph

°F

Jeddah Temperature Yesterday

Maximum temperature yesterday: 97 °F (at 1:00 pm)
Minimum temperature yesterday: 86 °F (at 6:00 am)
Average temperature yesterday: 92 °F

High & Low Weather Summary for the Past Weeks

 TemperatureHumidityPressure
High108 °F (Jul 16, 2:00 pm)89% (Jul 21, 6:00 am)29.74 "Hg (Jul 21, 6:00 am)
Low81 °F (Jul 9, 6:00 am)9% (Jul 10, 1:00 pm)29.47 "Hg (Jul 20, 6:00 pm)
Average93 °F43%29.61 "Hg
* Reported Jul 7 7:00 am — Jul 22 7:00 am, Jeddah. Weather by CustomWeather, © 2017

Note: Actual official high and low records may vary slightly from our data, if they occured in-between our weather recording intervals... More about our weather records

Advertising

Jeddah Weather History for the Previous 24 Hours

Scroll right to see more
 ConditionsComfort  
Time TempWeatherWind HumidityBarometerVisibility
7:00 am
Sat, Jul 22
88 °FSunny.7 mph66%29.62 "Hg10 mi
6:00 am88 °FSunny.9 mph70%29.62 "Hg10 mi
5:00 am88 °FClear.7 mph62%29.59 "Hg10 mi
4:00 am88 °FClear.5 mph62%29.59 "Hg10 mi
3:00 am88 °FClear.No wind55%29.59 "Hg10 mi
2:00 am90 °FClear.No wind52%29.59 "Hg10 mi
1:00 am90 °FClear.7 mph52%29.59 "Hg10 mi
12:00 am91 °FClear.9 mph52%29.59 "Hg10 mi
11:00 pm
Fri, Jul 21
91 °FClear.12 mph49%29.62 "Hg10 mi
10:00 pm91 °FClear.10 mph49%29.59 "Hg10 mi
9:00 pm93 °FClear.12 mph44%29.59 "Hg10 mi
8:00 pm93 °FClear.13 mph44%29.56 "Hg10 mi
7:00 pm95 °FSunny.15 mph41%29.56 "Hg10 mi
6:00 pm95 °FSunny.17 mph44%29.53 "Hg10 mi
5:00 pm95 °FSunny.20 mph44%29.53 "Hg10 mi
4:00 pm95 °FSunny.20 mph47%29.56 "Hg10 mi
3:00 pm97 °FSunny.18 mph50%29.56 "Hg10 mi
2:00 pm97 °FSunny.21 mph60%29.56 "Hg10 mi
1:00 pm97 °FSunny.18 mph53%29.59 "Hg10 mi
12:00 pm95 °FSunny.16 mph60%29.59 "Hg10 mi
11:00 am93 °FSunny.16 mph63%29.59 "Hg10 mi
10:00 am93 °FPassing clouds.14 mph67%29.59 "HgN/A
9:00 am91 °FPassing clouds.12 mph71%29.59 "HgN/A
Weather by CustomWeather, © 2017

See weather overviewHow to use our weather pages